Home   Weather   Gerasdorf bei Wien   Past weeks

Flag for Austria Past Weather in Gerasdorf bei Wien, Lower Austria, Austria — Yesterday and Last 2 Weeks

Now
55 °F

Clear.


Feels Like: 55 °F
Forecast: 46 / 73 °F
Wind: 2 mph from Northwest

Location: Wien / Hohe Warte

Current Time: Sep 27, 2016 at 10:46:49 PM

Latest Report: Sep 27, 2016 at 10:00 PM


Visibility: 10 mi

Pressure: 30.36 "Hg

Humidity: 79%

Dew Point: 49 °F

Location of Gerasdorf bei WienLocation

Past Weather in Gerasdorf bei Wien — Graph

°F

Gerasdorf bei Wien Temperature Yesterday

Maximum temperature yesterday: 70 °F (at 4:00 PM)
Minimum temperature yesterday: 51 °F (at 7:00 AM)
Average temperature yesterday: 59 °F

High & Low Weather Summary for the Past Weeks

 TemperatureHumidityPressure
High85 °F (Sep 13, 4:00 PM)95% (Sep 16, 6:00 AM)30.35 "Hg (Sep 16, 6:00 AM)
Low44 °F (Sep 23, 7:00 AM)35% (Sep 13, 5:00 PM)29.75 "Hg (Sep 17, 6:00 AM)
Average63 °F69%30.06 "Hg
* Reported Sep 12 9:00 PM — Sep 27 9:00 PM, Gerasdorf bei Wien, Weather by CustomWeather, © 2016

Note: Actual official high and low records may vary slightly from our data, if they occured in-between our weather recording intervals... More about our weather records

Advertising

Gerasdorf bei Wien Weather History for the Previous 24 Hours

Scroll right to see more
 ConditionsComfort  
Time TempWeatherWind HumidityBarometerVisibility
9:00 PM
Tue, Sep 27
57 °FClear.3 mph76%30.35 "Hg10 mi
8:00 PM59 °FClear.3 mph69%30.34 "Hg10 mi
7:00 PM62 °FPassing clouds.2 mph63%30.32 "Hg19 mi
6:00 PM66 °FPassing clouds.1 mph51%30.29 "Hg19 mi
5:00 PM70 °FPassing clouds.1 mph45%30.28 "Hg19 mi
4:00 PM68 °FPassing clouds.2 mph49%30.29 "Hg19 mi
3:00 PM70 °FPassing clouds.2 mph51%30.28 "Hg16 mi
2:00 PM68 °FPassing clouds.1 mph55%30.29 "Hg12 mi
1:00 PM67 °FPassing clouds.1 mph59%30.29 "Hg12 mi
12:00 PM63 °FPassing clouds.1 mph61%30.29 "Hg12 mi
11:00 AM61 °FScattered clouds.2 mph67%30.29 "Hg9 mi
10:00 AM56 °FPassing clouds.1 mph77%30.29 "Hg7 mi
9:00 AM54 °FPassing clouds.1 mph84%30.27 "Hg6 mi
8:00 AM50 °FPassing clouds.No wind93%30.26 "Hg6 mi
7:00 AM49 °FScattered clouds.1 mph94%30.26 "Hg12 mi
6:00 AM49 °FCool.No wind93%30.24 "HgN/A
5:00 AM50 °FCool.2 mph92%30.23 "HgN/A
4:00 AM51 °FCool.2 mph91%30.22 "HgN/A
3:00 AM51 °FCool.2 mph91%30.22 "HgN/A
2:00 AM52 °FClear.2 mph90%30.22 "Hg12 mi
1:00 AM54 °FCool.3 mph86%30.21 "HgN/A
12:00 AM54 °FCool.1 mph88%30.21 "HgN/A
11:00 PM
Mon, Sep 26
55 °FClear.1 mph85%30.21 "Hg12 mi
10:00 PM57 °FCool.1 mph80%30.20 "HgN/A
Weather by CustomWeather, © 2016

See weather overviewHow to use our weather pages